Regional Weather Roundup
Issued by NWS

Home | Current Version | Previous Version | Text Only | Print | Product List | Glossary On
Versions: 1 2 3 4 5 6 7 8 9 10 11 12 13 14 15 16 17 18 19 20 21 22 23 24 25 26 27 28 29 30 31 32 33 34 35 36 37 38 39 40 41 42 43 44 45 46 47 48 49 50
000
ASUS46 KSTO 191809
RWRCA

NORTHERN AND CENTRAL CA REGIONAL WEATHER ROUNDUP
NATIONAL WEATHER SERVICE SACRAMENTO CA
1100 AM PDT SAT AUG 19 2017

NOTE: FAIR INDICATES FEW OR NO CLOUDS BELOW 12,000 FEET WITH NO
SIGNIFICANT WEATHER AND/OR OBSTRUCTIONS TO VISIBILITY.

CAZ001-003-191900-
NORTHWEST AREA

CITY           SKY/WX    TMP DP  RH WIND       PRES   REMARKS
CRESCENT CITY  CLOUDY    61  54  77 N16G28    29.97F
ARCATA         NOT AVBL
SHELTER COVE   NOT AVBL
UKIAH          MOSUNNY   73  57  57 CALM      29.89F
$$

CAZ006-505>513-191900-
BAY AREA

CITY           SKY/WX    TMP DP  RH WIND       PRES   REMARKS
SANTA ROSA     MOSUNNY   62  56  80 S8        29.92S
SAN RAFAEL     N/A       64  MM  MM MISG
NAPA           PTSUNNY   65  56  72 SW10      29.93S
CONCORD        SUNNY     71  57  61 W15       29.91S
OAKLAND CITY   N/A      MM  MM  MM MISG
OAKLAND        CLOUDY    62  58  86 NW9       29.95R
SAN FRAN CITY  N/A       60  MM  91 MISG
SAN FRAN ARPT  PTSUNNY   63  58  83 N3        29.93S
LIVERMORE      SUNNY     73  59  61 CALM      29.90F
HAYWARD        PTSUNNY   66  55  67 W10       29.94S
REDWOOD CITY   N/A       65  MM  79 MISG
MOFFETT ARPT   MOSUNNY   70  60  70 VRB7      29.93S
SAN JOSE ARPT  MOSUNNY   72  56  57 S5        29.92F
$$
CAZ034-037-514>518-191900-
CENTRAL COAST

CITY           SKY/WX    TMP DP  RH WIND       PRES   REMARKS
WATSONVILLE    CLOUDY    62  57  83 W5        29.98R
SALINAS        CLOUDY    62  56  80 W6        29.96S
MONTEREY       CLOUDY    62  57  83 VRB5      29.97R
PT PIEDRAS BLS NOT AVBL
SAN LUIS OBISP MOSUNNY   67  58  72 SE5       29.97F
SANTA MARIA    PTSUNNY   65  59  81 VRB3      29.98F
$$
CAZ015-016-191900-
NORTHERN SACRAMENTO VALLEY

CITY           SKY/WX    TMP DP  RH WIND       PRES   REMARKS
REDDING        MOSUNNY   92  42  17 N10       29.83F HAZE
RED BLUFF      SUNNY     85  61  44 E5        29.85F
OROVILLE       SUNNY     83  61  47 VRB3      29.88R
$$
CAZ016>018-191900-
SOUTHERN SACRAMENTO VALLEY

CITY           SKY/WX    TMP DP  RH WIND       PRES   REMARKS
AUBURN         SUNNY     84  75  74 W5        29.92S HX  92
BEALE AFB      SUNNY     81  61  50 S3        29.85S
LINCOLN        FAIR      81  52  36 SW5       29.86S
MARYSVILLE     SUNNY     82  59  45 SW6       29.87S
SAC INTL ARPT  SUNNY     75  60  59 S5        29.87S
MATHER AIRPORT SUNNY     75  57  53 S5        29.87
DOWNTOWN SAC   N/A       76  MM  MM MISG
SAC EXEC ARPT  SUNNY     74  60  61 S7        29.87F
VACAVILLE      SUNNY     79  59  50 SW5       29.88S
TRAVIS AFB     SUNNY     70  56  60 SW23      29.86S
$$
CAZ019>021-191900-
SAN JOAQUIN VALLEY

CITY           SKY/WX    TMP DP  RH WIND       PRES   REMARKS
STOCKTON       SUNNY     79  60  52 N3        29.88S
MODESTO        SUNNY     81  58  45 VRB6      29.87S
MERCED         SUNNY     84  58  40 NW8       29.86S
LEMOORE        SUNNY     91  60  35 NE7       29.87F HX  90
FRESNO         MOSUNNY   87  64  46 S6        29.87F
HANFORD        SUNNY     88  64  44 SW3       29.87F
PORTERVILLE      N/A     88  63  43 W7        29.88F
BAKERSFIELD    SUNNY     90  60  36 VRB5      29.87F
$$
CAZ011-012-071-191900-
NORTHERN MOUNTAINS

CITY           SKY/WX    TMP DP  RH WIND       PRES   REMARKS
YREKA          CLOUDY    74  40  29 NW7       30.09F HAZE
MOUNT SHASTA   CLOUDY    74  42  31 VRB3      30.09S HAZE
ALTURAS        SUNNY     74  41  30 CALM      30.12F HAZE
$$
CAZ011-012-071-191900-
SIERRA NEVADA MTNS

CITY           SKY/WX    TMP DP  RH WIND       PRES   REMARKS
BLUE CANYON    SUNNY     79  40  24 VRB6      30.17S
TRUCKEE          N/A     75  48  38 CALM      30.20F
TAHOE VLY ARPT SUNNY     74  47  38 NE8       30.21F
MAMMOTH LAKES  FAIR      79  34  19 SE7       30.29F
$$




USA.gov is the U.S. government's official web portal to all federal, state and local government web resources and services.